Find Starlink 30389

NORAD ID: 57783 Int'l Des: 2023-134 Owner: SPXS Country: US Constellation: starlink operational
LEOCIRCULAR

現在のビュー

3D地球を読み込み中...

About Starlink 30389

Starlink 30389 (NORAD 57783) is a starlink constellation satellite (v2 mini) launched Sep 4, 2023 by SPXS of US. It operates in LEO, CIRCULAR orbit with a mass of 730.00 kg.

次回通過

Passes for default location (London). Set your location on the main map for personalized predictions.

高度履歴

Loading altitude history...

軌道要素

1 57783U 23134N 26237.60109570 .00000645 00000-0 32947-4 0 9995
2 57783 43.0008 323.6321 0000772 270.2726 89.8037 15.27579633165307
Epoch: Aug 25, 2026 • Age: 8 hours

現在のステータス

高度 482.9 km
遠地点 / 近地点 N/A
速度 7.63 km/s
衛星直下点 22.30°N, 157.83°E
打ち上げ日 Sep 4, 2023
運用期間 2.9 years
タイプ internet

技術仕様

分類 Payload
質量 730.00 kg
乾燥質量 700.00 kg
総質量 730.00 kg
長さ 0.30 m
直径 4.10 m
スパン 29.00 m
形状 Box + pan
製造者 SPXS
バスタイプ Starlink V2M
フェーズステータス In Orbit
所有者/国 SPXS/US

Most Searched